This is the latest recevied weather packets stored in our database for station/object W4DHW-4. If no packets are shown the sender has not sent any weather packets the latest 10 day(s).
| Time | Temp. | Humidity | Pressure | Rain* | Wind** | Luminosity | Snow |
|---|---|---|---|---|---|---|---|
| 1777377207 | 10° C | 97% | 1021.1 hPa | 0 mm | - | 56 W/m² | - |
| 1777376905 | 10° C | 97% | 1021.4 hPa | 0 mm | - | 44 W/m² | - |
| 1777376602 | 10° C | 96% | 1021.5 hPa | 0 mm | - | 39 W/m² | - |
| 1777376299 | 10° C | 96% | 1021.7 hPa | 0 mm | - | 43 W/m² | - |
| 1777375994 | 10° C | 96% | 1022.1 hPa | 1.78 mm | - | 34 W/m² | - |
| 1777375693 | 10° C | 96% | 1022 hPa | 3.05 mm | - | 25 W/m² | - |
| 1777375388 | 10° C | 96% | 1022.2 hPa | 1.27 mm | - | 15 W/m² | - |
| 1777375086 | 10° C | 95% | 1022.3 hPa | 3.05 mm | - | 8 W/m² | - |
| 1777374780 | 10° C | 95% | 1022.2 hPa | 4.32 mm | - | 5 W/m² | - |
| 1777374476 | 10° C | 95% | 1022.6 hPa | 6.1 mm | - | 3 W/m² | - |
| 1777374174 | 10° C | 95% | 1022.5 hPa | 6.1 mm | - | 3 W/m² | - |
| 1777373869 | 10° C | 95% | 1023 hPa | 4.83 mm | - | 0 W/m² | - |
| 1777373566 | 10° C | 94% | 1022.6 hPa | 3.05 mm | - | 0 W/m² | - |
| 1777373263 | 10° C | 94% | 1022.9 hPa | 6.1 mm | - | 0 W/m² | - |
| 1777372958 | 10° C | 94% | 1023.2 hPa | 7.87 mm | - | 0 W/m² | - |
| 1777372653 | 10° C | 94% | 1023.4 hPa | 6.1 mm | - | 0 W/m² | - |
| 1777372353 | 10° C | 94% | 1023.2 hPa | 4.83 mm | - | 0 W/m² | - |
| 1777372051 | 10° C | 94% | 1022.8 hPa | 4.83 mm | - | 0 W/m² | - |
| 1777371747 | 10° C | 93% | 1022.6 hPa | 8.89 mm | - | 0 W/m² | - |
| 1777371444 | 10° C | 93% | 1021.6 hPa | 9.65 mm | - | 0 W/m² | - |
| 1777371140 | 10.56° C | 93% | 1021.4 hPa | 4.83 mm | - | 0 W/m² | - |
| 1777370837 | 10.56° C | 92% | 1021.4 hPa | 4.83 mm | - | 0 W/m² | - |
| 1777370533 | 10.56° C | 92% | 1021.7 hPa | 3.05 mm | - | 0 W/m² | - |
| 1777370229 | 10.56° C | 91% | 1021.7 hPa | 3.05 mm | - | 0 W/m² | - |
| 1777369925 | 10.56° C | 91% | 1022.2 hPa | 1.78 mm | - | 0 W/m² | - |
* Rain latest hour (hover to see other rain measurements)
** Current wind speed in m/s (hover to see current wind gust speed)